List of Articles
번호
제목
글쓴이 날짜 조회수
886 Profile information ycolumam 2019-03-20 70
885 Banner Quảng Cáo Sân Bay BritneyFogg388949 2019-03-20 68
884 Alcohol Detox Even If You Are Only A Social Drinker 44969 CeliaJarrett381 2019-03-20 75
883 Avian Bird Flu Details 25964 MaricelaMcCasland61 2019-03-20 74
882 Traffic Psychology 41185 VictorGrey1262857727 2019-03-20 78
881 Perks Of Purchasing Yourself Contemporary House Office Furnishings 29432 DomingoHenley96 2019-03-20 67
880 Dodge Grilles 23050 MonteYount23092 2019-03-20 65
879 Drug Addiction And Recovery 45908 LionelCoburn2733 2019-03-20 73
878 Eight Hallmarks Of An Excellent Internet Income Program 32626 TeriGoode06242424192 2019-03-20 82
877 Addiction Therapy Centers For Substance Abuse 15249 LTUBlanca477517567498 2019-03-20 61
876 Top 10 Tips For Free Domain Traffic 34721 FETGus841884991082 2019-03-20 78
875 HEC Montreal 34859 ShielaDoughty0939 2019-03-20 70
874 Ton Insurance 33291 IvyJoshua627864802 2019-03-20 71
873 Addiction Treatment Centers For Substance Abuse 49480 MarlaFmq660536066438 2019-03-20 76
872 Welcome To The Indiana Schools 29406 ElyseWalters9260 2019-03-20 62
871 What Is Your Role As A Parent To Help Prevent Drug Abuse? 30032 FredericDill3899 2019-03-20 62
870 The Great, The Bad And The Ugly Of-business Opportunities 48217 ShanelVjc2605272 2019-03-20 71
869 Does My Daughter Or Son Need Therapy? 33699 DirkCintron306607 2019-03-20 66
868 Addiction Treatment Centers For Substance Abuse 25255 PeteThring6150957497 2019-03-20 69
867 Detox Or Detoxification - Whatever You Call It , You Might Advantage 47145 WaldoBurge775940 2019-03-20 72
866 News And The Internet 44563 MakaylaSummy8867 2019-03-20 67
865 Search Engine Optimization, SEO London And Search Engine Optimization UK 49045 RolandoKaufman4734 2019-03-20 74
864 Dirk Goes Wild And Suns Neglect To Address! 12761 Estelle18D97108 2019-03-20 71
863 Addiction Therapy Centers For Substance Abuse 28420 JerilynEscalante85 2019-03-20 66
862 Flood Insurance 45930 Oren84830141704337 2019-03-20 75
861 The Positive Aspects Of Wine 41629 Irvin8591318569975584 2019-03-20 64
860 Search Engine Optimization, SEO London And Search Engine Optimization UK 14581 MalcolmMartinson 2019-03-20 80
859 Making The The Majority Of Article Promotion 37377 OmerLeavitt2273 2019-03-20 73
858 Narcotic Pain Relief: Addiction Danger And Medication 49477 CarenDew003057304876 2019-03-20 76
857 Dodge Grilles 24671 Roman50Z2533317 2019-03-20 70
856 Addiction Remedy Centers For Substance Abuse 41195 AlmaMary2772430 2019-03-20 71
855 Ten Techniques To Improve Your Affiliate Commissions 36342 MarlysHollins841789 2019-03-20 80
854 If The Stocks Commence At Just Beneath A Dollar, How Can An Investor Hope To Turn Into Rich In The End? 22260 AmberHamann4403845 2019-03-20 67
853 Album Cover Art-Part Two 14538 BridgetteKnox51345 2019-03-20 67
852 Autographed Activities Memorabilia And Gathering Them 25628 CandelariaCoffin 2019-03-20 70
851 Puppy, Foe Or Friend 10456 CrystalLqn0528977 2019-03-20 65
850 Why Provide A Lot Of Thought On Search Engine Optimization 11634 MelodyApodaca2561730 2019-03-20 69
849 Tourist Attraction Excellent Wall Of China 27424 PaigeHouchins2285 2019-03-20 71
848 Forums The Wonder Of Networking 19941 OXYDomingo354705 2019-03-20 84
847 Online US & Canada Shopping Forum 11703 LeonelS2728706374 2019-03-20 72
846 Established Great Things About A Weight Loss Forum 49743 NWPJannette03711 2019-03-20 72
845 The Rewards Of Wine 37705 FlorenceBurges22 2019-03-20 75
844 HEC Montreal 34875 HaiDavey591601728907 2019-03-20 72
843 Drug Addiction And Recovery 36007 DeanaRingler9806 2019-03-20 68
842 Welcome To The Indianapolis Schools 40985 BrittneyDixon012 2019-03-20 63
841 Hold The Best Marriage Ceremony By Visiting Spectacular Las Vegas Wedding Venues 26684 BettieShowalter108 2019-03-20 69
840 An Avowed Roofing Contractor-Your Best Option 28515 JannetteLockyer22 2019-03-20 66
839 Drug Addiction And Recovery 28756 EfrainEnyeart9101 2019-03-20 66
838 Could This Be The Following Great Monopoly? 38732 BFKKathlene8848209642 2019-03-20 67
837 Addiction Treatment Centers For Substance Abuse 47292 ArmandoK3655449 2019-03-20 69
836 Why Offer A Large Amount Of Thought On Seo 19152 HelenCasas92989578 2019-03-20 74
835 Web Coupons As A Retail Strategy 43439 Benito80C820283 2019-03-20 79
834 On Line Writing - Is This The Perfect Subject? 37486 WinnieAlfonso25809 2019-03-20 68
833 Addiction Treatment Centers For Substance Abuse 11792 StarOShaughnessy901 2019-03-20 73
832 From Graphic Style To Web Development What Your Organization Needs! 45595 GeraldBingle280283364 2019-03-20 64
831 Detox Or Detoxification - Whatever You Get In Touch With It , You May Advantage 12332 AlejandrinaHurlburt6 2019-03-20 70
830 Addiction Therapy Centers For Substance Abuse 47488 BrianneMurch77375659 2019-03-20 71
829 When Do You Need To Use A Data Recovery Service? 37213 FredrickHaggerty207 2019-03-20 66
828 Back Ground History Of Lil Wayne 49645 TeenaMcIntosh027 2019-03-20 69
827 Abuse Material Treatment System Review 29236 ChastityTrumble19 2019-03-20 67
826 Addiction Remedy Centers For Substance Abuse 45931 DarrelJameson1936 2019-03-20 65
825 The Inexpensive Caribbean - The Islands Of Les Saintes 41209 SalinaStackhouse268 2019-03-20 64
824 Diving Accreditation 13210 PhillippLedbetter 2019-03-20 71
823 Addiction Treatment Centers For Substance Abuse 43935 RickeyTruong50057947 2019-03-20 65
822 Eight Hallmarks Of A Great Affiliate Revenue Plan 33612 ShastaLees08318 2019-03-20 75
821 PHPBB: You Can Simplify The Set Up Procedure! 32562 Roberta26B03189239 2019-03-20 74
820 Addiction Remedy Centers For Substance Abuse 30603 ByronEvz2724444694161 2019-03-20 69
819 The Positive Aspects Of Wine 17264 AndraCormier884206 2019-03-20 73
818 The David Wright Details Record 28715 JeannaKulikowski0 2019-03-20 66
817 A Glimpse Of The Past Via Baton Rouge Historic Properties 34987 ElvinBosanquet3028 2019-03-20 67
816 Addiction Therapy Centers For Substance Abuse 19121 GayConnely65929468596 2019-03-20 68
815 Detox Or Detoxification - Whatever You Call It , You May Benefit 39719 MammieVqn0140306125 2019-03-20 61
814 Addiction Treatment Centers For Substance Abuse 12403 YQVDanielle94910219 2019-03-20 65
813 Addiction Therapy Centers For Substance Abuse 16922 KittyPfk081006002173 2019-03-20 68
812 Las Vega Coupon Book 37891 TroyDransfield313609 2019-03-20 68
811 News And The Internet 25920 LamarPrerauer42 2019-03-20 72
810 Adam Rooney The Celebrity 23623 BerylCoomes48004514 2019-03-20 72
809 A Glimpse Of The Past By Means Of Baton Rouge Historic Properties 36637 AlyciaDeLoitte01 2019-03-20 61
808 Perfecting Your Web Site With SEO Organic Techniques 39772 LeticiaLoyd21078000 2019-03-20 74
807 Fight The Exam Pressure 23247 YAAWallace9885765123 2019-03-20 75
806 Addiction Treatment Centers For Substance Abuse 13207 MylesRaggatt0900 2019-03-20 64
805 Blogging And SEO - A Perfect Small Business Internet Marketer Match 30629 JamesVwc0271741 2019-03-20 67
804 Addiction Treatment Centers For Substance Abuse 44075 LBJLauna062254682401 2019-03-20 63
803 HEC Montreal 47145 MikelBaillieu15022 2019-03-20 65
802 Addiction Treatment Centers For Substance Abuse 30656 AnneFrueh867676 2019-03-20 66
801 The Potentials Of Yoga In Helping You Get Much Better Sleep 40879 TitusCuthbertson7 2019-03-20 70
800 Error Authenticating. Either Bad Username/Password Or Your Account Has Outstanding Payments Due 15966 MayMeece163126556 2019-03-20 69
799 Top 10 Tips For Free Domain Traffic 42777 FionaGuillen92392 2019-03-20 70
798 Addiction Remedy Centers For Substance Abuse 23481 KelvinGrooms05717 2019-03-20 61
797 Choosing The Plastic Surgeon 27392 MonserrateW45671 2019-03-20 65
796 Addiction Remedy Centers For Substance Abuse 33707 JoannaFerris908 2019-03-20 60
795 Detox Or Detoxification - Whatever You Contact It , You May Advantage 25653 MeiPaquin882672 2019-03-20 75
794 Comparing Different E-Commerce Shopping Carts 43868 HollyColburn1263703 2019-03-20 64
793 Spirituality Information - Journey In The Fields Of Forever ( Component 69) 40644 JannettePegues0 2019-03-20 54
792 Discount Coupon Book 42838 ElissaAnglin214338 2019-03-20 61
791 Brighton Bags -Information When Searching For Brighton Handbags 18319 Leonore99W831994 2019-03-20 63
790 Avian Bird Flu Details 37787 JoannaChinner234889 2019-03-20 62
789 Alcohol Detoxification Even Although You Are Simply A Social Drinker 43268 ColeGrillo837215 2019-03-20 64
788 Error Authenticating. Either Bad Username/Password Or Your Account Has Outstanding Payments Due 37006 MichaelaSear40943 2019-03-20 59
787 Detox Or Detoxification - Whatever You Contact It , You Might Benefit 43334 AlvaBroadhurst867159 2019-03-20 75
786 Detox Or Detoxification - Whatever You Contact It , You May Benefit 27635 ElisaCrist003104 2019-03-20 75
785 Refining Your Web Site With SEO Organic Techniques 47644 OscarMeo3398665143540 2019-03-20 61
784 Insomnia A Side Impact Of Opiate Withdrawal 44576 DeonZ1318180917255 2019-03-20 59
783 Dirk Goes Wild And Suns Neglect To Include! 39683 BerylHeckman142893 2019-03-20 71
782 Wealth Management: Effectiveness Is A Must 18994 DarnellBurkholder7 2019-03-20 64
781 Detox Or Detoxification - Whatever You Contact It , You Might Advantage 32589 EmeliaHarvill33379 2019-03-20 76
780 The Nice, The Poor And The Ugly Of Business Opportunities 27332 TaraScarbrough56574 2019-03-20 63
779 Welcome To The Indiana Schools 15917 CodyBain590512159 2019-03-20 62
778 Cutting Heating Costs 29471 MirtaKingsley81290 2019-03-20 59
777 On The Web US & Canada Purchasing Forum 12157 Amelia10X2758391736 2019-03-20 63
776 Back Ground History Of Lil Wayne 38033 LindseySteil56073 2019-03-20 60
775 Search Engine Optimization - How Bad Links Can Risk Your Rankings 44404 NatashaBarna410713 2019-03-20 64
774 Does My Son Or Daughter Need Therapy? 27452 LatashaGodson03290 2019-03-20 61
773 Addiction Remedy Centers For Substance Abuse 19634 Aja49C799039946838784 2019-03-20 62
772 Forums The Wonder Of Networking 46360 HarriettSvc7978481377 2019-03-20 68
771 Ten Methods To Enhance Your Affiliate Commissions 12448 ElbaMckenney97227 2019-03-20 72
770 Blogging And SEO - A Perfect Small Business Web Marketer Match 44171 Arlene4848397481 2019-03-20 74
769 Seo - How Bad Links Can Risk Your Rankings 46534 BeulahMcGee08723 2019-03-20 55
768 From Visual Style To Web Development What Your Business Needs! 40716 Leonel63G180430742535 2019-03-20 67
767 Subscription Management Software: Greater Management Of Member Accounts 23138 CorineBelstead046772 2019-03-20 60
766 Addiction Treatment Centers For Substance Abuse 15116 LeahFaunce79416 2019-03-20 61
765 Addiction Therapy Centers For Substance Abuse 26722 LettieTaverner3 2019-03-20 66
764 Dodge Grilles 29772 BertieDarr2026327277 2019-03-20 64
763 Detox Or Detoxification - Whatever You Call It , You Might Benefit 27485 AishaDemaio821504 2019-03-20 72
762 News And The Web 16208 WyattEldred2991 2019-03-20 65
761 Addiction Therapy Centers For Substance Abuse 46796 KeiraCamara9470745 2019-03-20 63
760 Quilting Fabric The Personality Of A Quilt 24547 VilmaHammons65018655 2019-03-20 67
759 What You Ought To Know About Negative Credit Auto Loan 15825 HarrisBaber4569941 2019-03-20 65
758 Memorialize Your Very Own Wedding Ceremony Inside Scenic Las Vegas Wedding Venues 28198 StacieFontenot661 2019-03-20 62
757 6 Red Hot Ideas To Get Your Articles Study 33080 ShelleyRide643312 2019-03-20 62
756 Ton Insurance 17824 JustinS930798577 2019-03-20 63
755 Left Handed Metal Sets 16828 SOVMyron621964512 2019-03-20 61
754 Punishment Material Treatment Plan Review 11263 JamalNieto080868629 2019-03-20 58
753 Effectiveness Of Painkillers In The Treatment Of Fibromyalgia 40060 LawannaHpz433551860 2019-03-20 61
752 A Guyss Painless Guide To Proposal, Pt.1 18367 ShelaT7608661281182 2019-03-20 54
751 Balancing Your Decorating Tips 30880 ElissaDumolo350326640 2019-03-20 60
750 An Avowed Roofing Contractor-Your Best Choice 17575 EdithBevins89373627 2019-03-20 59
749 Addiction Remedy Centers For Substance Abuse 11489 NicoleShillings3195 2019-03-20 65
748 Honda Top Victoria: Change Is Good 45420 CelsaPaling7242938 2019-03-20 58
747 Reducing Heating Costs 49360 BrennaMulligan2031 2019-03-20 55
746 Autographed Activities Memorabilia And Gathering Them 20825 MilesBriggs213188787 2019-03-20 61
745 Welcome To The Indianapolis Schools 14328 JamilaBartos60091067 2019-03-20 66
744 Search Engine Optimisation - How Bad Links Can Risk Your Rankings 17238 SabinaBaugh3891724 2019-03-20 65
743 Addiction Therapy Centers For Substance Abuse 17616 FayeGriego2593416 2019-03-20 62
742 More Site Traffic From Higher Pr 21503 JacksonDoughty34344 2019-03-20 68
741 Tips To Help You Obtain House Improvement Done 35650 CharleneT929502866 2019-03-20 56
740 Addiction Therapy Centers For Substance Abuse 42838 LolitaLlanes79360244 2019-03-20 63
739 Automobile Auto Dealer Houston New 29849 Ramona22M801935991959 2019-03-20 66
738 Dirk Goes Wild And Suns Fail To Include! 23096 OFVJose891445955 2019-03-20 60
737 Drug Addiction And Recovery 37289 ShaneShah50797337 2019-03-20 59
736 Detox Or Detoxification - Whatever You Contact It , You Might Benefit 20241 ValerieBays7975808 2019-03-20 69
735 Traffic Therapy 13041 ChangKobayashi293 2019-03-20 61
734 Does My Daughter Or Son Need Therapy? 13821 TheresaBlanton455 2019-03-20 63
733 What's Your Role As A Parent To Aid Prevent Drug-abuse? 49722 EmanuelRicci2833094 2019-03-20 60
732 The Ins And Outs Of Hilary Duff's Connections 19227 LaureneSpearman 2019-03-20 56
731 Higher Blood Pressure And The Effects Of Alcohol 46455 MickieJewett39161 2019-03-20 58
730 All-Inclusive Honey Moon Offers 23309 BennieAncher005 2019-03-20 59
729 Quilting Fabric The Personality Of A Quilt 45198 IolaTomaszewski275 2019-03-20 63
728 Addiction Therapy Centers For Substance Abuse 45802 FreemanNorfleet 2019-03-20 69
727 Addiction Remedy Centers For Substance Abuse 19599 HesterRoyal133090 2019-03-20 68
726 What's Your Role As A Parent To Help Prevent Drug-abuse? 48456 DesireeQuilty18 2019-03-20 65
725 Welcome To The Indiana Schools 34161 ChelseyJtt3812586520 2019-03-20 57
724 Wealth Management: Performance Is Really A Must 45435 MalindaMetzler1 2019-03-20 53
723 Detox Or Detoxification - Whatever You Call It , You Might Advantage 13589 MicaelaWhiteman9801 2019-03-20 56
722 Traffic Psychology 20470 BrandenBlaine77 2019-03-21 53
721 Alcohol Detox Even If You Are Simply A Social Drinker 24350 JewellJak8019308 2019-03-21 58
720 Narcotic Discomfort Relief: Addiction Danger And Medication 43270 Tomoko18042369980 2019-03-21 56
719 Addiction Treatment Centers For Substance Abuse 15518 RedaEva0632765030213 2019-03-21 52
718 Addiction Therapy Centers For Substance Abuse 26933 AngeliaWentworth0832 2019-03-21 48
717 Addiction Remedy Centers For Substance Abuse 33936 SuzetteDowdy077037445 2019-03-21 50
716 Promotional Promotion Specialty Youve Waited Long Enough 16563 DonnieFlores823 2019-03-21 49
715 Welcome To The Indianapolis Schools 14485 SangWiley394756 2019-03-21 44
714 Dirk Goes Wild And Suns Neglect To Cover! 23325 KellyeAtherton5 2019-03-21 45
713 Welcome To The Indianapolis Schools 36313 ChandraJury911438 2019-03-21 40
712 Alcohol Therapy The 12 Step Program 30392 LeathaBales0077900 2019-03-21 40
711 Detox Or Detoxification - Whatever You Call It , You May Benefit 24307 TraceyCco125750 2019-03-21 43
710 Autographed Sports Memorabilia And Obtaining Them 21847 SharronSynnot7624233 2019-03-21 42
709 Want To Free Of Charge Pc Download Game 30182 DorcasKur231087654897 2019-03-21 50
708 What You Should Know About Poor Credit Auto Loan 22928 PreciousHut586436015 2019-03-21 45
707 Dodge Grilles 30380 PAMJustin825044 2019-03-21 48
706 Detox Or Detoxification - Whatever You Contact It , You May Advantage 20592 ConcepcionD5490584059 2019-03-21 56
705 The Ins And Outs Of Hilary Duff's Relationships 28306 MelodeeBatts6504 2019-03-21 45
704 Which E-bay Checkout System Is For You? 43457 EarnestineKirke 2019-03-21 44
703 From Graphic Design To Web Develop-ment What Your Organization Needs! 14126 BeatrisGrizzard0 2019-03-21 38
702 Back Ground History Of Lil Wayne 27212 KristenGreeves82689 2019-03-21 44
701 Addiction Remedy Centers For Substance Abuse 49343 JorjaJaime5506130624 2019-03-21 42
700 How You Can Develop A Money Tree 26843 HelaineE792032378 2019-03-21 35
699 When Do You Need To Use A Data Recovery Service? 29568 BretParra78266322 2019-03-21 44
698 Possible Hurdles And Opportunities To Your Business Debt Collection Archie9178150003 2019-03-21 36
697 Promotional Promotion Specialty Youve Waited Long Enough 20855 WilheminaSlaughter86 2019-03-21 40
696 The Truths And Myths Of Masturbation 10836 LindaHuggins4921587 2019-03-21 35
695 Traffic Therapy 47678 GordonGoderich85327 2019-03-21 37
694 Addiction Remedy Centers For Substance Abuse 12527 JoelBettencourt 2019-03-21 40
693 Profile information amikyh 2019-03-21 34
692 Does My Child Need Therapy? 43622 AbigailFlemming 2019-03-21 39
691 Máy Giặt Chăn Công Nghiệp Giá Bao Nhiêu? DottySellar0337932627 2019-03-21 36
690 Effectiveness Of Painkillers In The Treatment Of Fibromyalgia 38229 JonathonWhyte15 2019-03-21 42
689 News And The Web 26163 WilmerSteffan6983658 2019-03-21 38
688 Drug Addiction And Recovery 18877 IndianaKibby065 2019-03-21 39
687 Worthwhile Expired Areas 42527 Sanora8156511757500 2019-03-21 37
686 HEC Montreal 16418 LanceBarraclough508 2019-03-21 27
685 News And The Web 33360 JessicaJ8710068 2019-03-21 26
684 Addiction Remedy Centers For Substance Abuse 37361 MagdalenaFantl49 2019-03-21 24
683 Debt Collection Tips - Making A Telephone Call CasieDuerr58472 2019-03-21 15
682 Prostate Stimulation Strategies 33363 LeonoreCreech32591 2019-03-21 19
681 Celebrate Your Incredible Marriage In Eye-catching Las Vegas Wedding Venues 18934 LorenaHague785939 2019-03-21 16
680 Greatest Thai Restaurant Food Delivery In Las Vegas - Locating Hot Thai Food Delivered Very Quick In Sin City 31057 BritneyCpw14029607 2019-03-21 18
679 How You Can Grow A Money Tree 48294 RoyToll52204451376 2019-03-21 17
678 Commercial Debt Collection Pitfalls GarrySulman77884587 2019-03-21 9
677 To Use Or Not To Use Google Adwords 40164 GerardBarreto29 2019-03-21 10
676 Bảng Báo Giá Máy Giặt Công Nghiệp Cho Những Ai Cần EffieTucker10087 2019-03-21 4
675 Decide To Purchase Panama Real Estate With A Self Directed IRA 19307 LaylaWisniewski8328 2019-03-21 7
674 Seem Inside To Find Out How To Breast-enhancement Effects 47028 OrvalB234722202864 2019-03-21 12
673 Bac Si Gia Dinh Von29312723264597 2019-03-21 11
672 Quảng Cáo Sân Bay Nội Bài Hà Nội SamiraCrook34545 2019-03-21 43
671 Debt Collection Tips - Making A Telephone Call Sebastian37556326312 2019-03-21 15
670 Buzzy Buzz About Affiliate Advertising And Marketing 47209 KathieLodewyckx0 2019-03-21 9
669 Intelligent And Satirical T-Shirts From Fusilly, Inc 41380 ShirleenSpann45120 2019-03-21 9
668 Only A Little About Prostate Cancer 23116 SibylPink291645 2019-03-21 12
667 Finding Coupons 41011 AnnabelleHerrod05942 2019-03-21 10
666 SEO Guidelines Search Engine Marketing 30046 PhilChappell923858 2019-03-21 6
665 Addiction Remedy Centers For Substance Abuse 41276 Susana9301920450599 2019-03-21 11
664 News And The Net 36510 BasilUxn196863897 2019-03-21 6
663 Detox Or Detoxification - Whatever You Get In Touch With It , You May Possibly Benefit 48092 NPOAbraham16187106640 2019-03-21 11
662 Types Of Online Stores 24669 HelaineSchrader294 2019-03-21 7
661 News And The Web 29567 Hulda54D549093375609 2019-03-21 10
660 Criminal Defense Lawyers 27519 JamalVoyles376186 2019-03-21 12
659 Finding The Right Bankruptcy Alternatives To Your Requirements 12750 LuisaPinkney71507 2019-03-21 9
658 Carpal Tunnel Syndrome: Pinched Median Nerve At The Wrist 10977 DanutaRays1601211275 2019-03-21 5
657 An Understanding Of Mesothelioma Lead To 10394 AntonySsd953617527 2019-03-21 8
656 Back Ground Checks - How They Are Able To Help Your Company 19913 LuisaBelbin9848361 2019-03-21 8
655 If The Stocks Start Off At Just Beneath A Dollar, How Can An Investor Hope To Turn Into Wealthy In The End? 15508 HiramVelazquez04 2019-03-21 9
654 Wildfire Productions Announces Release Of Most Current Client Internet Site: Just Art Related 13025 MeriX063793158615478 2019-03-21 8
653 Productive Cocaine Treatment For Your Loved One Particular 35373 KAXMickey662931300206 2019-03-21 7
652 Types Of Online Stores 30601 DarrylBaehr91868 2019-03-21 6
651 Addiction Therapy Centers For Substance Abuse 17139 CliffordW5308987 2019-03-21 10
650 What Is The Air Like Up There? 21687 CharleneYws130396 2019-03-21 12
649 Is Affiliate Marketing Excellent? 12023 PeggySmall014557 2019-03-21 4
648 Making Your Money Worth In Toronto 39270 HerbertProuty69 2019-03-21 6
647 Specialist Recruitment Firms Could Make Your Organization Money 42153 Audry55S4995675 2019-03-21 10
646 Another Kind Of Email Marketing Permission Based 42629 PriscillaStodart4 2019-03-21 6
645 Asbestos Testing- Essential Protection Against Killer Ailments 14942 GonzaloHdo013195 2019-03-21 8
644 Getting Cheap Portland Car Insurance 29036 MuoiPolk6842960 2019-03-21 7
643 Types Of Online Stores 26993 DarinHepp633716200065 2019-03-21 7
642 Drug Rehabilitation An Introduction 20789 BerndMondragon47122 2019-03-21 9
641 Ohio Schools Give Prospective Teachers A Lot Of Selections 48246 EmmaZgm8916017242 2019-03-21 5
640 Plumbing Dilemmas May Possibly Demand A Plumbing Builder 46514 CiaraZgj1034253650 2019-03-21 7
639 Report Writing Fundamentals - How To Make This Lucrative Business Function 19483 FreddieMackie2735741 2019-03-21 11
638 Make Your Honeymoon Holidays In Munnar, Kerala 46047 KristinChamplin4 2019-03-21 6
637 Understand The Different Kinds Of Flowers 11673 ConstancePittard741 2019-03-21 6
636 Can Be Your Air Conditioning Filter Important? 28157 EstelleWheen90499 2019-03-21 8
635 Finding Coupons 19324 JuneLockie64786 2019-03-21 8
634 How To Market With No Website 48850 MargartCrabtree 2019-03-21 5
633 Lake Hopatcong; A Secondary Paradise 48442 DavidA4014764425 2019-03-21 9
632 Coupon Shopping Canada Bargains 38527 JeanetteLaby014045 2019-03-21 4
631 Addiction Therapy Centers For Substance Abuse 22292 EllaMcMann0864368 2019-03-21 7
630 Criminal Injury Claim - Are You Serious 32915 RNXTamela77287395 2019-03-21 9
629 Coupon Shopping Canada Bargains 14707 TamaraWitmer0682214 2019-03-21 5
628 Finding Coupons 32700 VenusT156307334700050 2019-03-21 5
627 The Internet Advertising And Marketing Buzz: Are You Going To Be In Or Out? 37101 Lynne23N663603999308 2019-03-21 2
626 Wildfire Productions Announces Release Of Latest Client Site: Just Art Related 25364 NellyHeckel0418332 2019-03-21 8
625 Substance Abuse Treatment In-to Main-stream Of Healthcare Process 24361 AlannaBirkbeck0901 2019-03-21 7
624 Asbestos Testing- Necessary Protection Against Killer Illnesses 48296 CheriZnk3987658 2019-03-21 10
623 What Is Hot And What Is Not About All-Inclusive Holiday Packages. 39930 BrendaAltman062 2019-03-21 6
622 How Affiliate Marketing Online Works 31766 GarfieldReinke44213 2019-03-21 7
621 Septic Tanks - Chance Symptoms In A Rural Home 41508 LorenzaW755419447316 2019-03-21 6
620 A How-To Overview For A Dazzling White Smile 22087 KarissaNason00779 2019-03-21 7
619 Bringing Your E-Commerce To The Next Step 24279 TajMcDonald8049 2019-03-21 8
618 Just How To Podcast Using Wordpress 29829 BennettEtienne37775 2019-03-21 8
617 How Can You Know If You Have A Superb Mortgage Broker? 12785 Sibyl92L397574946 2019-03-21 7
616 Promotional Advertising Niche Youve Waited Long Enough 49986 AlberthaBellino21239 2019-03-21 11
615 Alcohol Rehab When It Is Necessary 26809 ShaunteOReilly6571 2019-03-21 9
614 Criminal Defense Lawyers 25335 ShaunI417347098 2019-03-21 10
613 Eight Easy But Extremely Productive Techniques To Make Cash In Your Blog 24961 AngleaLarry931685513 2019-03-21 6
612 Conflict Continues Between Home Builders Association And Orlando Schools 16181 HQLHong847866711 2019-03-21 9
611 The Teacher Advancement Plan At Cincinnati Schools Tries To Keep Good Teachers 38823 Shayna85614206210 2019-03-21 8
610 Michael Oliver Audio Books 48591 LethaRankin3865 2019-03-21 7
609 Bringing Your E-Commerce To The Subsequent Step 20515 TitusHaugen9573657 2019-03-21 10
608 Do You Need An Lawyer In Ohio? 33181 Tanja49G3530933556297 2019-03-21 10
607 In Case You Go Digital? 30207 KarenKrug544984075171 2019-03-21 11
606 What To Consider When Choosing An All-inclusive Caribbean Hotel 25950 MelodeeLayton726 2019-03-21 10
605 Hillary Duff And Her Cosmetic Surgery, Dental Cosmetic Surgery That Is 30192 JulietDownes649 2019-03-21 6
604 Discovering The Right Bankruptcy Alternatives For Your Requirements 24420 BrianneBiddlecombe24 2019-03-21 5
603 Write-up Writing The Midas Touch Of Hyperlink Approaches 26467 FlorentinaKraft54 2019-03-21 9
602 The Butt Lift 46371 MollyMoose02989 2019-03-21 7
601 Get A Grip On Your Online TRAFFIC 33807 Margret25N82826 2019-03-21 6
600 Gaston County Criminal Records For Residents 13441 LaunaMacGregor805 2019-03-21 9
599 Plumbing Dilemmas May Require A Plumbing Company 15014 CaseyCastles17215976 2019-03-21 11
598 All The Remarkable Secrets About Go Karts In Calgary 30713 TemekaNickerson 2019-03-21 14
597 Energy Conservation Begins At Home 40447 JoySpring26909370825 2019-03-21 14
596 Keep Safe When Working With Your Credit Card On Line 18842 Kelle2023820210482547 2019-03-21 7
595 All You Want To Know About Earning A Residual Earnings In An Affiliate Plan 39443 MarielPolk824894876 2019-03-21 6
594 The Actual Facts About Foreign Merino Wool 44347 LeathaReno50818229 2019-03-21 6
593 Ignoring Negative Criticism 46176 BrittnyRidley0181912 2019-03-21 9
592 Commercial Furniture For Any Property Owner 46074 MarissaEge10698 2019-03-21 9
591 What You Need To Check For When Purchasing A Home In Las Vegas 28018 KarlX5914878097149860 2019-03-21 11
590 Significant Skin Care 22376 LinoKalb3712187472215 2019-03-21 10
589 Cream Compared To. Skin Care Creams 14777 FideliaDiehl62436 2019-03-21 10
588 Several Moving Overseas Services 37387 Antoinette43G9631 2019-03-21 11
587 Narcotic Pain Relief: Addiction Threat And Medication 49163 OmerP74473395148082 2019-03-21 9
586 Know About Myspace Tracker Scams 14491 Eva08S704573358092 2019-03-21 8
585 Elegant Techniques To Say I Do In Las Vegas 13845 NataliaPerales1598 2019-03-21 12
584 Methods For Choosing The Cooling Specialist 29807 LamontGalea37896 2019-03-21 8
583 How Do You Know If You've A Superb Mortgage Broker? 44656 NestorIpr504130689090 2019-03-21 11
582 Write-up Writing Fundamentals - How To Make This Profitable Company Operate 22253 KariOor982488981 2019-03-21 9
581 The Joy Of Brothers And Sisters Time 41869 AntonyLackey8000188 2019-03-21 8
580 Alcohol Detoxification Even If You Are Simply A Social Drinker 10203 AnhBrookfield6281 2019-03-21 7
579 Why To Get Original Legit Anabolic Steroids? 38220 NannieLarkins176328 2019-03-21 7
578 Practicing In The Forex Market 42065 AugustWhitely45159 2019-03-21 13
577 Recovery From Addictions, Part 4 24519 IAKRefugia5396445 2019-03-21 9
576 Criminal Defense Attorneys 46410 NicholasKopp33661602 2019-03-21 9
575 Dropped Hard Drive: Dont Panic 20607 JacksonZaleski329 2019-03-21 9
574 Introduction To Business Show Features 21989 WKUCassie3915190 2019-03-21 9
573 World Cup Will Be Highlighted By England Portugal Rematch From 1966! 34689 WadeKaye540627760 2019-03-21 9
572 Addiction Remedy Centers For Substance Abuse 48521 JannaWilbur75075 2019-03-21 5
571 Methods For Choosing The Cooling Company 43284 WindyStrack88575 2019-03-21 9
570 Drug Rehabilitation An Introduction 25117 AracelyStockdill4 2019-03-21 6
569 How To Make Your Dollar Worth In Toronto 18978 ChadLoughlin623954 2019-03-21 10
568 Las Vegas Wedding Invitation Wording - Help Is Here 28057 MilesRandell62828 2019-03-21 10
567 Is Picking A Surgeon Pot Luck? 37041 NorineHumphery97 2019-03-21 8
566 The Finest Offers In International Tour, Hotel Reservation And Holiday Packages Services. 16553 MauraStutchbury 2019-03-21 5
565 What Is Hot And What Is Not About All-Inclusive Holiday Packages. 43465 EdwinaChristman886 2019-03-21 6
564 The Mean KSC Airsoft Guns 25812 Philip14P556081 2019-03-21 5
563 An Understanding Of Mesothelioma Cause 41952 MeridithSchulz9 2019-03-21 10
562 In The Event You Use Auctionblox For The Auctions? 44049 AlvaErtel277263654 2019-03-21 12
561 Learn About The Different Types Of Roses 44994 Dale52735116249780 2019-03-21 8
560 Improving Your Web Site With SEO Organic Techniques 12535 DarlaSalomons7607302 2019-03-21 10
559 Control Your Web TRAFFIC 47478 PrinceTorrez696 2019-03-21 9
558 Oxnard Attractions - Jim Hall Kart Racing School 33956 Kandis788937384119 2019-03-21 3
557 How To Hire A Net Designer/Programmer For Your Website 37481 Madonna38Y86344 2019-03-21 9
556 Installing Custom Sheepkin Seat Covers 36423 ClintonFlynn10526784 2019-03-21 9
555 The Criminal Defense Lawyer Association 33826 RochellBorthwick2 2019-03-21 8
554 Dirk Goes Wild And Suns Fail To Cover! 28998 FlorianMillican81 2019-03-21 7
553 Criminal Defense Attorneys 30376 Laura36T34713741922 2019-03-21 8
552 How To Collect A Debt SelinaWeatherly929 2019-03-21 7
551 Totally Free World Wide Web Marketing 13233 MerriMoor155181 2019-03-21 8
550 Is An All-Inclusive Vacation Package Right For You? 28180 TammyConnibere69763 2019-03-21 10
549 A Look At Tips On How To Hook-up Business Opportunity Seekers. 12766 JayneLewers46369256 2019-03-21 12
548 Lost Hard Drive: Dont Panic 29054 Paula30V84120288 2019-03-21 11
547 Alcohol Rehab If It Is Necessary 35937 MelodeePlayford470 2019-03-21 12
546 Septic Tanks - Danger Symptoms In A Rural Home 38935 ZVGLucy90810793535267 2019-03-21 10
545 Addiction Therapy Centers For Substance Abuse 32979 ChristinaElsass98 2019-03-21 11
544 Las Vegas Wedding Invitation Wording - Help Is Here 39662 JuniorRinehart349127 2019-03-21 11
543 Control Your Internet TRAFFIC 25249 KerrieSoukup29304506 2019-03-21 6
542 You Should Buy Legit Steroids Online 38163 TorstenMorse365846878 2019-03-21 7
541 Dirk Goes Crazy And Suns Fail To Cover! 17316 AnnGaribay919429 2019-03-21 5
540 Narcotic Discomfort Relief: Addiction Threat And Medication 31729 ShaneLindell26476 2019-03-21 6
539 Dirk Goes Wild And Suns Fail To Include! 29901 SungBrant358982 2019-03-21 11
538 Addiction Treatment Centers For Substance Abuse 18463 OrlandoGoodenough491 2019-03-21 11
537 Do You Require An Lawyer In Ohio? 29045 SalvadorCollee8868 2019-03-21 13
536 How To Start Utilizing Green Energy In Your Life 49400 AliceCrompton1145 2019-03-21 6
535 Practicing In The Forex Market 41755 BetsyDadswell100881 2019-03-21 10
534 Herbal Solutions For Rheumatoid Arthritis 49627 Ned39F469745665 2019-03-21 8
533 Alcohol Rehab When It's Necessary 20340 EmilioKrouse812062 2019-03-21 12
532 Detox Or Detoxification - Whatever You Get In Touch With It , You May Benefit 45829 Colette86382220 2019-03-21 9
531 The Criminal Defense Lawyer Association 40724 DoraFitzGibbon969024 2019-03-21 11
530 Paid Online Study Tips - How To Avoid Getting Conned By Settled Online Review Programs 14897 BrentonBerrios6155 2019-03-21 9
529 Tips As Well As Details About Improving Your Dental Health And Wellness 14587 ClementDeLissa62 2019-03-21 8
528 Different Moving Overseas Services 39477 Trudy32N5887683548 2019-03-21 6
527 An Insight Into Jordan Owen 40076 TanjaWooley2654 2019-03-21 6
526 Only A Little About Prostate Cancer 44783 KristineM784621452 2019-03-21 8
525 Addiction Treatment Centers For Substance Abuse 17153 CooperLinkous97394 2019-03-21 8
524 Dirk Goes Crazy And Suns Fail To Cover! 35229 QJODominga0046135 2019-03-21 2
523 The Top Do-It-Yourself Home Improvement Tips 43837 ZelmaGreenup3761 2019-03-21 12
522 Dirk Goes Wild And Suns Fail To Protect! 41780 SandyBinder7345839 2019-03-21 11
521 Asbestos Testing- Essential Protection Against Killer Diseases 40386 GlenOverlock9813 2019-03-21 4
520 News And The Web 37174 DelilahSymon96945 2019-03-21 9
519 Practicing In The Forex Industry 25870 TIWMaryjo6563395433 2019-03-21 11
518 Addiction Therapy Centers For Substance Abuse 37246 HalinaHartfield 2019-03-21 10
517 Addiction Therapy Centers For Substance Abuse 13022 LolaRodarte68530267 2019-03-21 6
516 Recovery From Addictions, Part 4 48510 RichieWoodfull26940 2019-03-21 6
515 Septic Tanks - Chance Symptoms In A Rural House 11775 Louella84M81832032 2019-03-21 8
514 Boston Plans To Fight Off Foreclosure Crisis 28421 BrandieIrizarry 2019-03-21 3
513 Detox Or Detoxification - Whatever You Contact It , You Might Benefit 33157 NormandBrewer8804257 2019-03-21 10
512 Website To Market Your Web Company 32504 USBDeneen54354135520 2019-03-21 8
511 News And The Internet 37686 SharonMcVilly74797 2019-03-21 10
510 Addiction Remedy Centers For Substance Abuse 38280 JacquesSaville693 2019-03-21 3
509 Energy Conservation Begins At Home 32485 EliseForsythe9413287 2019-03-21 7
508 Coupon Shopping Canada Bargains 22914 ShonaW97122720283 2019-03-21 4
507 If The Stocks Begin At Just Under A Dollar, How Can An Investor Hope To Grow To Be Rich In The Finish? 20030 PalmaHoutman9757278 2019-03-21 7
506 Painting Art Book 15784 MickiTye0136131 2019-03-21 4
505 Cock Rings Sex Toy For Men 29026 MariaKenney770536220 2019-03-21 4
504 Types Of Online Stores 30252 Bette82501296261 2019-03-21 5
503 Pond Hopatcong; A Holiday Paradise 35933 MoraDalrymple067135 2019-03-21 5
502 News And The Internet 24388 OlaLamb128779626 2019-03-21 7
501 All-Inclusive Honey Moon Offers 48651 IzettaMcIntyre4967 2019-03-21 4
500 Septic Tanks - Threat Symptoms In A Rural House 22368 FrancinePayton0 2019-03-21 5
499 Addiction Treatment Centers For Substance Abuse 44364 LeonieHindwood6 2019-03-21 5
498 Valuable On Line Wedding Planning Resources 35402 RichieMoulton15086 2019-03-21 7
497 Cost-free Web Marketing 34316 YasminHeymann860796 2019-03-21 4
496 Promotional Marketing Niche Youve Waited Long Enough 27921 LanBordelon242717 2019-03-21 9
495 Where To Find Inexpensive Longterm Care Insurance In Tennessee 46250 ElviraFortin790093 2019-03-21 5
494 Greatest Thai Las Vegas Restaurant Food Delivery - Getting Best Chinese Food Delivered Super Quick In Las Vegas 32647 IsabelBranham504887 2019-03-21 8
493 Strategies For Selecting A Cooling Builder 30241 Christi8108864992 2019-03-21 5
492 Las Vegas Wedding Invitation Wording - Help Will Be Here 42755 DeePuig21982270 2019-03-21 6
491 Narcotic Discomfort Relief: Addiction Danger And Medication 40162 ElanaFilson4284 2019-03-21 6
490 Stone Top Tiles 45224 DellCrawford6671727 2019-03-21 5
489 News And The Net 11208 FranchescaBatista5 2019-03-21 3
488 Google Analytics And Google AdWords 26040 TaylorCosta31304 2019-03-21 4
487 The Elegant Japanese Maple Bon-sai 49887 ErickBoan177363434 2019-03-21 6
486 Post Writing The Midas Touch Of Link Approaches 37589 YaniraSheahan4279697 2019-03-21 7
485 Search Engine Optimization, SEO London And Search Engine Optimization UK 30056 TanyaOdoms70383750 2019-03-21 6
484 Addiction Remedy Centers For Substance Abuse 48248 DiannaRiver46765 2019-03-21 9
483 Plumbing Problems May Possibly Need A Plumbing Specialist 16096 AdelaidaMorshead12 2019-03-21 8
482 Las Vegas Wedding Invitation Wording - Help Is Here 18220 GlennBaum97022535806 2019-03-21 8
481 Addiction Therapy Centers For Substance Abuse 35240 JaimieColechin46 2019-03-21 7
480 Wildfire Productions Announces Release Of Most Recent Client Web Site: Just Art Related 33663 MaudeTrejo100147975 2019-03-22 5
479 Dropped Hard Drive: Dont Panic 16999 EnriqueKinney010 2019-03-22 4
478 Michael Ealy Community Forums Who's That? 46821 RaquelSilas56625 2019-03-22 5
477 Strategies For Choosing The Cooling Specialist 19372 RoyalWld89969924 2019-03-22 3
476 Oxnard Attractions - Jim Hall Kart Racing School 36134 QIPSibyl7180346707 2019-03-22 8
475 Types Of Online Stores 44057 DanWilkinson114706 2019-03-22 8
474 Substance Abuse Treatment In-to Main-stream Of Medical Care System 23583 Kate13V222976616 2019-03-22 3
473 Ogrodzenia Poznan ycutubyke 2019-03-22 3
472 Medicine Rehabilitation An Introduction 48338 JuliFairthorne66 2019-03-22 8
471 State Roof Tiles 47893 NorbertoYard649521 2019-03-22 3
470 Vital Facts Concerning Various Kinds Of Laravel Hosting Accessible At This Time new RoseannaBoddie013169 2019-03-22 2
469 Do You Need An Lawyer In Ohio? 25162 new KelvinC23777241496 2019-03-22 4
468 Specialist Recruitment Organizations Could Make Your Enterprise Funds 11546 new StuartFaber10512141 2019-03-22 6
467 Wonderful Green Energy Solutions Anybody Can Use! 16374 new WillieConstant409511 2019-03-22 8
466 Learn All Of The Methods Behind Great Painting 49891 new MitchelTorrens45395 2019-03-22 6
465 Control Your Web TRAFFIC 43286 new AdellMaloney779 2019-03-22 7
464 Dịch Vụ Quảng Cáo Tại Sân Bay new Mammie86S71746307 2019-03-22 2
463 Stylish Ways To Say I Do In Las Vegas 16935 new GOJJosh68298830 2019-03-22 6
462 Get Out Of The Red And Attempt These Green Power Ideas 43259 new FeliciaMcKie334 2019-03-22 6
461 Getting Poker Guidance In A Poker Forum 24515 new LorrineFrancois259 2019-03-22 11
460 Why Provide A Large Amount Of Thought On Seo 40833 new CliffCagle898713401 2019-03-22 4
459 Addiction Treatment Centers For Substance Abuse 29148 new HowardXwo23955909 2019-03-22 5
458 How To Podcast Using Wordpress 20342 new ClevelandGbt8699529 2019-03-22 5
457 Only A Little About Prostate Cancer 38987 new LucretiaL38139539424 2019-03-22 4
456 Profile information new ewisady 2019-03-22 3
455 Report Writing Basics - How To Make This Profitable Organization Work 43467 new SamuelHalstead69 2019-03-22 8
454 Addiction Treatment Centers For Substance Abuse 19934 new DannieCrampton099038 2019-03-22 6
453 Addiction Therapy Centers For Substance Abuse 23943 new SelmaRayburn0000 2019-03-22 8
452 حراجی آنلاین new ThorstenRosario 2019-03-22 2
451 Las Vegas Wedding Invitation Wording - Help Is Here 34440 new KraigSainthill131953 2019-03-22 10
450 The Criminal Defense Lawyer Association 38941 new BroderickOrosco28219 2019-03-22 3
449 Restoration From Addictions, Part 4 33096 new KentLoyau0675318 2019-03-22 4
448 The Lazy Man's Guide To Expedited Passport Fee For Child new StaciaBrumby1805792 2019-03-22 7
447 Dirk Goes Wild And Suns Fail To Cover! 42269 new LatiaHaun2709418407 2019-03-22 3
446 Promotional Marketing Niche Youve Waited Long Enough 14107 new NicholePemberton17 2019-03-22 6
445 Best Thai Restaurant Food Delivery In Las Vegas - Finding And Locating Good Thai Food Delivery Very Fast In Vegas 39312 new VTKArielle05820 2019-03-22 14
444 River Hopatcong; A Holiday Paradise 45334 new HymanNagel1851536 2019-03-22 10
443 Just How To Transfer A Account 33311 new TammaraLoera3070890 2019-03-22 5
442 Many Kinds Of Points You Should Discover Concerning Free Instagram Followers Possibilities new ArletteFredricksen17 2019-03-22 2
441 قالب وردپرس new DelorasHeadlam52 2019-03-22 3
440 Small Business Debt Collection new Cierra06F45224286 2019-03-22 2
439 Need More Time? Read These Tips To Eliminate Expedited Visa Processing Brazil new LarhondaDancy91459690 2019-03-22 7
438 Israeli Labour Union Threatens Major Strike Ahead Of Election new PQJAlannah460377897 2019-03-22 2
437 The Appropriate IMEI Check Is Finally Available In Here For Anyone new GidgetBuckmaster7 2019-03-22 4
436 Excited About A Fast Accommodation In Samoa? You Need To Observe This new Brandon5145648851886 2019-03-22 3
435 Why Have A Passport Application Form? new StaciaBrumby1805792 2019-03-22 7
434 Serious About A Quick Katana Sword? You Must Find Out This new ChasitySealey58 2019-03-22 4
433 Addiction Therapy Centers For Substance Abuse 36699 new ElizbethFoveaux652 2019-03-22 4
432 Practicing In The Forex Market 14224 new MaxWorsham870945387 2019-03-22 5
431 Addiction Treatment Centers For Substance Abuse 25576 new MelisaRose070344820 2019-03-22 5
430 Monetary Advisor new KelliWadham3637175 2019-03-22 8
429 Kensaq.com new HeribertoMolloy 2019-03-22 12
428 The Hidden Truth On Passport Application Locator Number Exposed new LarhondaDancy91459690 2019-03-22 6
427 Dirk Goes Crazy And Suns Fail To Include! 22236 new LiliaGellibrand 2019-03-22 3
426 Monetary Advisor (@FAmagazine) On Twitter new RachelNewdegate6420 2019-03-22 10
425 How To Choose A Monetary Advisor Or Monetary Planner new UlyssesGreenhalgh26 2019-03-22 6
424 The Best Funding Recommendation Ever new PerryFlood9477677686 2019-03-22 8
423 For Investment Advice UK, Consult An Impartial Monetary Adviser new RachelNewdegate6420 2019-03-22 7
422 Funding Advice For Veterans new HalinaLively893 2019-03-22 6
421 Investment Recommendation For Inexperienced Persons new GenevieveRasch5719 2019-03-22 6
420 کارت Pvc new TheresaWhittle23550 2019-03-22 4
419 The Smartest Funding Advice You May Ever Receive new ChesterCatt973942072 2019-03-22 7
418 How To Select A Monetary Advisor new TerryStawell2485924 2019-03-22 8
417 Financial Advisor Recruiters new DamionAndres11870 2019-03-22 6
416 The Smartest Investment Recommendation You'll Ever Receive new KelliWadham3637175 2019-03-22 6
415 Monetary Advisors new CorneliusHebert7415 2019-03-22 7
414 Diversified Investment Adviser new TamiCawthorne6432 2019-03-22 5
413 For Investment Recommendation UK, Seek The Advice Of An Impartial Financial Adviser new RachelNewdegate6420 2019-03-22 4
412 Develop Into An Funding Advisor new HeribertoMolloy 2019-03-22 5
411 Investing Money, Recommendation About Compounding Capital new PerryFlood9477677686 2019-03-22 7
410 Wanting For Financial Investment Recommendation? new TerryStawell2485924 2019-03-22 4
409 On Becoming A Trusted Financial Advisor new GenevieveRasch5719 2019-03-22 6
408 Funding Recommendation new AngelaFuller436 2019-03-22 7
407 The Basic Facts Of Passport Renewal Expedited new BennieAthaldo6337058 2019-03-22 7
406 Five Solid Reasons To Avoid Expedited Visa Processing Canada new StaciaBrumby1805792 2019-03-22 7
405 هتل استقلال تهران new LorrieMacredie91341 2019-03-22  
404 Mortgage Accelerator new RockySpielvogel 2019-03-22 6
403 Offshore Monetary Adviser Calls For Regulation, And For Help For Expats new KelliWadham3637175 2019-03-22 5
402 Why It Is Vital To Use A Financial Advisor After Winning The Lottery? new DoraEasterby19319981 2019-03-22 2
401 Turn Into An Funding Advisor new RachelNewdegate6420 2019-03-22 4
400 Monetary Advisor Advertising And Marketing new GabrieleLandor7 2019-03-22 4
399 Stock Investment Advice And Retirement Planning new Jetta06297686923339 2019-03-22 4
398 Stock Funding Recommendation And Retirement Planning new CorneliusHebert7415 2019-03-22 5
397 Be Careful With The Monetary Media new BreannaPfaff02929360 2019-03-22 4
396 Monetary Adviser new SteveFlower88538 2019-03-22 2
395 How To Select A Monetary Advisor Or Monetary Planner new PalmaSturgeon5764 2019-03-22 3
394 Funding Advice & Technique new UlyssesGreenhalgh26 2019-03-22 5
393 Embarking On A Profession As A Financial Advisor new MarciaVickers146 2019-03-22 2
392 Monetary Advisor new NDZEartha3878195 2019-03-22 3
391 Investment Recommendation For Rookies new GenevieveRasch5719 2019-03-22 3
390 Farmland Funding Recommendation new CristineWhetsel39285 2019-03-22 3
389 How To Purchase Your Inventory At Discount? Funding Recommendation new JonathonLundstrom 2019-03-22 3
388 Mutual Fund Investment Recommendation new MiraMeadows8079 2019-03-22 4
387 Financial Advisor Referrals new RenatoThow3143320 2019-03-22 3
386 Inventory Market Investment Advice new MuhammadXxv965927 2019-03-22 6
385 On Becoming A Trusted Monetary Advisor new Wally95O0613367371 2019-03-22 3
384 Detailed Notes On Visa Application Status France In Step By Step Order new LarhondaDancy91459690 2019-03-22 4
383 Can Sex Sell Expedited Passport Fee Post Office? new RodrickFqa715180752 2019-03-22 4
382 Little Known Facts About Passport Renewal Status - And Why They Matter new StaciaBrumby1805792 2019-03-22 4
381 The Basic Facts Of Expedited Visa To India From Us new BrooksGilliland00 2019-03-22 4
380 Visa Application Center Ils Washington At A Glance new ShawnaGunther45402333 2019-03-22 3
379 Profile information new uwefufu 2019-03-22 2
378 Cashflow - Protecting The Lifeblood Of Your Business new EstelaRacine42415 2019-03-22 2
377 Alcohol Rehab If It Is Necessary 16575 new RaymonKef24311557 2019-03-22 6
376 Alcohol Detox Even If You Are Simply A Social Drinker 31160 new SantoKiddle1877 2019-03-22 1
375 Why Give A Lot Of Thought On Seo 40028 new DakotaReda829195489 2019-03-22 2
374 Just How Long May Be The Healing Time After LASIK Surgery 25286 new DarrellJernigan396 2019-03-22 4
373 The Ins And Outs Of Hilary Duff's Relationships 28811 new Jaqueline52M111356437 2019-03-22 3
372 Addiction Therapy Centers For Substance Abuse 30135 new GladysRydge56596051 2019-03-22 3
371 Top 2008 At House Refund Processor! 43407 new ModestoBloomfield0 2019-03-22 2
370 Becoming A Model 43843 new Sophia14C42371044 2019-03-22 1
369 Australia Trip Package 45140 new JohnetteBreton6 2019-03-22 4
368 Traffic Therapy 27530 new Eugene0908787281779 2019-03-22 3
367 Passport Photos Costco - The Conspriracy new EpifaniaStGeorge98 2019-03-22 6
366 News And The Net 49602 new OsvaldoArellano5 2019-03-22 3
365 Promotional Marketing Specialty Youve Waited Long Enough 43989 new Jai59E8700531883 2019-03-22 4
364 New Technology Breaks Through Cancer Pain 41217 new DeliaBrookshire714 2019-03-22 1
363 Search Engine Optimization, SEO London And Search Engine Optimization UK 25841 new ElliotMadrid28363 2019-03-22 3
362 Physical Exams Apply To Your Warming And AC, Too 19342 new ARZOrval3341067104 2019-03-22 2
361 Link Building Strategies For 2006 35803 new HolleyRector1161884 2019-03-22 4
360 Getting Your Site Found Before-you Start 15244 new JacquieTyy8372425 2019-03-22 2
359 Alcohol Rehab When It's Necessary 36426 new RaquelGiltner3810 2019-03-22 2
358 Addiction Remedy Centers For Substance Abuse 10648 new MireyaMarmion86151 2019-03-22 3
357 What Is Your Purpose As A Parent To Aid Prevent Drug-abuse? 33850 new ArletteLangler709 2019-03-22 2
356 What You Need To Know Before You Hire A Contractor 18568 new DerickRamsbotham 2019-03-22 1
355 Becoming A Model 46566 new KatlynBarna772094 2019-03-22 4
354 Data Mining And Modelling 41326 new Tim245886674847005 2019-03-22 4
353 Addiction Treatment Centers For Substance Abuse 34517 new JodyStamey7733651127 2019-03-22 4
352 Home Improvement 20821 new ShannaZaragoza27574 2019-03-22 4
351 The Housing Market In Scottsdale, Arizona 28213 new KayleighH47239202724 2019-03-22 2
350 Economical Health Insurance In Pennsylvania 20488 new CristineXxm6017 2019-03-22 3
349 Why Collect American Vintage Movie Posters? 18221 new SheliaG00576675434349 2019-03-22 2
348 Six Places To Look For A Passport Office Dc new KobyYancy96058823 2019-03-22 2
347 Error Authenticating. Either Bad Username/Password Or Your Account Has Outstanding Payments Due 36434 new ChristianTorode17803 2019-03-22 3
346 Jordan Ealy Message Boards Who Is That? 45082 new KlaraBoas826858 2019-03-22 9
345 May The Matrix Trilogy Stay As Popular As Star Wars? 23343 new CeliaThurber3400 2019-03-22 2
344 Factors To Enhance The Home Design Features 36164 new HumbertoWhatmore25 2019-03-22 1
343 Recovering From A Romance Or Dating Scam (Part Two) 11389 new KoreyDruitt71718 2019-03-22 1
342 Where To Locate A List Of Plumbers 16685 new TaneshaSibley1047 2019-03-22 1
341 Hyperlink Developing Approaches For 2006 13488 new Selene97A9675089 2019-03-22 1
340 Addiction Therapy Centers For Substance Abuse 42916 new ZeldaForet95009804 2019-03-22 1
339 Addiction Treatment Centers For Substance Abuse 35767 new DanaeQuinton270159 2019-03-22 1
338 Las Vegas Wedding Invitation Wording - Help Is Here 43009 new NathanielSomerville 2019-03-22 1
337 Christian T-Shirts - Exactly Where To Purchase 48791 new HarrisCampion617344 2019-03-22 1
336 Take A Structured Settlement Or One-Time Lump Sum Payment? 36373 new LottieEhmann620 2019-03-22 1
335 Factors To Enhance The Interior Design Features 36796 new CarmineNii550446 2019-03-22 2
334 Tax Season - Time For Scams 30782 new BookerSeaton853885 2019-03-22 2
333 Why Pensacola Is Great For Folks On Manual Wheelchairs 41217 new RodrickS7069873 2019-03-22 2
332 The Ulitmate Expedited Visa To China Trick new EQZKristopher13 2019-03-22 3
331 Data Mining And Modelling 26306 new KathleneWedding188 2019-03-22 2
330 Data Mining And Modelling 41162 new DeannaLucia5371 2019-03-22 2
329 Addiction Remedy Centers For Substance Abuse 10533 new VivianSteinmetz95 2019-03-22 1
328 Practicing In The Forex Market 41643 new GenaEthridge0376 2019-03-22 2
327 Addiction Therapy Centers For Substance Abuse 10468 new LavonValadez9013872 2019-03-22 1
326 Factors To Enhance The Interior Design Features 36374 new TobyBulcock3879469 2019-03-22 1
325 Addiction Remedy Centers For Substance Abuse 45298 new BethHand2963605 2019-03-22 2
324 Indoor Enjoyable To Beat The Desert Heat 31666 new DustinLardner39067 2019-03-22 2
323 Truck Area Marketing Isnt It Time? 35955 new ChristalHensman41 2019-03-22 2
322 You Need To Take A Good Look At Affiliate Plans 44786 new ElkeVargas970085613 2019-03-22 2
321 Recovering From A Romance Or Dating Scam (Element Two) 29348 new MartinaTimmons6415 2019-03-22 2
320 Addiction Remedy Centers For Substance Abuse 20382 new CherieBranco7744 2019-03-22 2
319 A Chef Does This And That 36433 new FrancescoSanches653 2019-03-22 2
318 Death, Passport Application Form And Taxes: Tips To Avoiding Passport Application Form new PearlineEvans0072 2019-03-22 2
317 Choose The Best Airsoft Weapon 46546 new CharliFalkiner35146 2019-03-22 2
316 The Dreadful Migraine 10238 new Rolland01362318 2019-03-22 2
315 Addiction Remedy Centers For Substance Abuse 25556 new LeandraHellyer008152 2019-03-22 1
314 Getting Your Website Listed Before-you Launch 19028 new Helen98122909553 2019-03-22 2
313 Addiction Treatment Centers For Substance Abuse 21201 new HeidiCollie08871358 2019-03-22 2
312 Addiction Therapy Centers For Substance Abuse 28625 new RenateBillington299 2019-03-22 2
311 Alcohol Treatment - Keep Your Life 35539 new DarrellC3589057 2019-03-22 1
310 What're The Pros And Cons Of A Manual Wheel Chair? 26097 new EwanO7617725415637 2019-03-22 2
309 Farming Book 38843 new MilanC968580627501 2019-03-22 1
308 Why Give A Lot Of Thought On Search Engine Marketing 41221 new Rubin9941341064289 2019-03-22 1
307 How To Improve Book Sales 11811 new BlondellSkeats698073 2019-03-22 2
306 Garden Book 19392 new Alissa587631244 2019-03-22 2
305 Why Pensacola Is Excellent For People On Manual Wheelchairs 46974 new HalleyDju229108188729 2019-03-22 1
304 News And The World Wide Web 14146 new GingerMinnick6814756 2019-03-22 2
303 Addiction Remedy Centers For Substance Abuse 45194 new AlisaOrosco05554 2019-03-22 1
302 Alcohol Detoxification Even Though You Are Just A Social Drinker 12335 new RoryMacdonell245803 2019-03-22 2
301 Addiction Treatment Centers For Substance Abuse 45026 new JBVRudy144130410905 2019-03-22 2
300 Fruit For Although: How Grape Juice Can Support Preserve Us Mentally On Track 44657 new TeddyGepp528458 2019-03-22 2
299 Addiction Therapy Centers For Substance Abuse 15284 new TabithaLloyd1504761 2019-03-22 1
298 Things That You Should Be Aware Of When You Need A Information Copy Solution 43630 new CeciliaGallant960 2019-03-22 2
297 Staying In Touch The Looks Your Own House Business 48180 new EllenDoyle46961 2019-03-22 1
296 Dropped Hard Drive: Dont Panic 20852 new JeroldDenham573455 2019-03-22 1
295 Fruit For Even Though: How Grape Juice Can Assist Preserve Us Mentally On Track 40122 new TerrenceCedillo 2019-03-22 1
294 Your Manual To Temecula Wine Tours 46560 new KaliMcCaughey78697 2019-03-22 2
293 Visa Application Center Boston Features new SpencerWemyss59843 2019-03-22 2
292 Expedited Visa Appointment China Is Crucial To Your Business. Learn Why! new StaciaBrumby1805792 2019-03-22 2
291 Is Affiliate Marketing Great? 35326 new GudrunCanela452404 2019-03-22 2
290 The Ultimate Guide To Visa Application Status Check new JeramyDollar47515506 2019-03-22 2
289 Master The Art Of Passport Application Renewal With These 9 Tips new JakeTulk52553187746 2019-03-22 2
288 Why My Visa Application Center San Francisco Is Better Than Yours new PatrickS61301968 2019-03-22 2
287 What Everyone Ought To Know About Passport Application Status new DoraTruesdale111 2019-03-22 2
286 4 Must-haves Before Embarking On Visa Application Center India new MiguelFay5480897039 2019-03-22 2
285 Alcohol Detoxification Even If You Are Only A Social Drinker 15223 new VerlaQab2869769 2019-03-22 2
284 The Network Marketing Niche 14473 new LindsayCranwell9154 2019-03-22 2
283 The Role Of Secrecy In Romance Scams 44976 new JuneNunez03202880466 2019-03-22 2
282 Addiction Treatment Centers For Substance Abuse 11506 new RogelioH343076097 2019-03-22 2
281 11 Quick (and Good) Content Ideas For Your Ezine Or Website 20601 new PatrickMatthies75587 2019-03-22 2
280 Vini Yoga 11326 new MeredithTarpley0229 2019-03-22 2
279 Lost In The Globe Of Article Submission? 20975 new Jeannine7140951 2019-03-22 2
278 Improving Your Web Site With SEO Organic Techniques 29533 new ConcepcionPrieto911 2019-03-22 2
277 Designer Handbags Are All The Rage 14059 new CortezOaf7669167009 2019-03-22 1
276 Decorating Book Club Understand The Art Of Decorating 40444 new Tahlia4418289810350 2019-03-22 2
275 Binge Drinking: A Sober Risk For Teenagers 22926 new BrookBarnet38123 2019-03-22 2
274 Alcohol Rehab: How Rehab Stores Help Dependency Restoration 15779 new AndresC8702223794 2019-03-22 2
273 Alcohol Detox Even Although You Are Only A Social Drinker 45758 new RSQWiley651748454 2019-03-22 1
272 How Home Emergency Cover Can Assist The Requirements Of The Over 60s 11755 new GladysCarron20459557 2019-03-22 2
271 You, Me And Passport Photos Walmart: The Truth new RodrickFqa715180752 2019-03-22 1
270 Helpful Web Design Methods For You 41089 new ErrolBoake162408 2019-03-22 2
269 Expedited Passport Time Canada Expert Interview new CarlaStuber39936 2019-03-22 1
268 Three Ridiculously Simple Ways To Improve Your Visa Application Center Ils Washington new LarhondaDancy91459690 2019-03-22 1
267 Whispered Visa Application Status Australia Secrets new BethanyCampbell4 2019-03-22 1
266 Crucial Data Relating To Unique Kinds Of IPTV Italia Accessible Right Away new VicenteSchleinitz807 2019-03-22 1
265 Las Vegas Wedding Invitation Wording - Help Will Be Here 27173 new ClaribelVandyke76025 2019-03-22 1
264 Post Writing The Midas Touch Of Link Techniques 44445 new ZitaDuFaur907087 2019-03-22 1
263 Addiction Therapy Centers For Substance Abuse 12632 new JaninaCurrent0653401 2019-03-22 1
262 Chuck Norris 41410 new AimeeKesler574615955 2019-03-22 1
261 Alcohol Rehab: How Rehabilitation Facilities Help Dependency Recovery 30650 new Adrienne69N08974994 2019-03-22 1
260 Addiction Therapy Centers For Substance Abuse 48139 new WilburnBlyth497776 2019-03-22 2
259 The Expedited H1b Visa Processing Time Mystery new KobyYancy96058823 2019-03-22 1
258 Drug Addiction And Withdrawal Symptoms 28929 new HermanODriscoll9051 2019-03-22 2
257 Dirk Goes Crazy And Suns Neglect To Address! 33658 new StanleyHerington31 2019-03-22 2
256 Australia Trip Package 13121 new JamaalGresham986032 2019-03-22 1
255 Decorating Book Club Find Out The Art Of Decorating 32922 new MahaliaWinder668208 2019-03-22 2
254 News And The Web 46905 new BusterFarrington7 2019-03-22 1
253 Detox Or Detoxification - Whatever You Get In Touch With It , You May Possibly Advantage 41304 new LinGaines9695950215 2019-03-22 2
252 Addiction Treatment Centers For Substance Abuse 27581 new FinlayMunro5863 2019-03-22 2
251 The True Story About Same Day Expedited Passport Chicago That The Experts Don't Want You To Know new EQZKristopher13 2019-03-22 2
250 Cargo Liner Essentials And Information 26048 new ConstanceGrace22989 2019-03-22 2
249 Narcotic Discomfort Relief: Addiction Risk And Medication 22976 new EnidCavill146933 2019-03-22 2
248 Stone Roof Tiles 27519 new FlorrieParkin0797048 2019-03-22 1
247 Great Air Conditioners 14149 new ConcettaVanderbilt52 2019-03-22 2
246 Numerous Back Pain Causes 17488 new IndiraGuthrie0800594 2019-03-22 2
245 Can Pheromone Use Improve The Impact Of Generic Viagra? 24074 new EveSmothers45654894 2019-03-22 2
244 Knowing The Important Points About An Affiliate Program 39042 new HughTvb85332493599 2019-03-22 2
243 Take A Structured Settlement Or One-Time Lump Sum Payment? 18266 new MarioCastiglia17 2019-03-22 1
242 Alcohol Rehab If It Is Necessary 25613 new ArlieMackey360838976 2019-03-22 1
241 Serenity 47872 new ReedBook4580078559 2019-03-22 1
240 Deion Sanders 1989 Draft Time Picks 16409 new SaraBlaxland586 2019-03-22 2
239 The Greatest Funding Recommendation Of All Time new RevaMannix990439522 2019-03-22 2
238 Search Engine Optimization, SEO London And Search Engine Optimization UK 32497 new ArlieHelena40761 2019-03-22 1
237 Enhancing Your Web Site With SEO Organic Techniques 36917 new ArnulfoAnderson 2019-03-22 2
236 Fee Biased Investment Advice Can Critically Harm Your Financial Health new Gladys69053308267242 2019-03-22 2
235 Monetary Advisor For Your Small Business new GenevieveRasch5719 2019-03-22 2
234 Financial Advisor Enterprise Plan new GabrieleLandor7 2019-03-22 2
233 Funding Advice For Learners new RevaMannix990439522 2019-03-22 2
232 Deciding On A Financial Advisor new KrystalCarington1703 2019-03-22 1
231 Mutual Fund Investment Advice new RenatoThow3143320 2019-03-22 2
230 Careers In Monetary Advising new JuliannValenzuela6 2019-03-22 1
229 Why It Is Vital To Use A Monetary Advisor After Winning The Lottery? new RachelNewdegate6420 2019-03-22 1
228 Investment Recommendation For Veterans new RockySpielvogel 2019-03-22 2
227 Choosing A Financial Advisor new DoraEasterby19319981 2019-03-22 1
226 How Essential Is The Function Of A Monetary Advisor new CortezOldham136 2019-03-22 1
225 Dependable Stock Investment Advice new BreannaPfaff02929360 2019-03-22 2
224 New Monetary Advisor? Here's Four Ideas To Starting Your Financial Planning Follow new WaylonGwynn73766248 2019-03-22 1
223 Conflicting Funding Advice new JarrodRosenhain66102 2019-03-22 1
222 The Finest On-line Funding Advice new UlyssesGreenhalgh26 2019-03-22 1
221 Funding Recommendation For People Contemplating An MLP Mutual Fund new NDZEartha3878195 2019-03-22 1
220 Finacial Advisor On The 7 Pillars Of Financial Planning new AntjeNolan0022909205 2019-03-22 1
219 Investing Money, Recommendation About Compounding Capital new PalmaSturgeon5764 2019-03-22 2
218 Strategies For Financial Advisors new Alfonso478181605 2019-03-22 1
217 Do I Need A Monetary Advisor? new KaseyMariano7601 2019-03-22 1
216 The Greatest Funding Recommendation Ever new RachelNewdegate6420 2019-03-22 2
215 Division Of Labor Points Proposed Fiduciary Rule On Funding Recommendation new HeribertoMolloy 2019-03-22 2
214 Strategies For Monetary Advisors new PerryFlood9477677686 2019-03-22 1
213 Trying For Monetary Investment Advice? new MuhammadXxv965927 2019-03-22 1
212 Strategies For Monetary Advisors new KerriStrutt33752268 2019-03-22 1
211 The World's Worst Stock Funding Recommendation new Alejandra48D845529798 2019-03-22 1
210 Strategies For Financial Advisors new JonathonLundstrom 2019-03-22 2
209 Careers In Monetary Advising new MonroeAckman6172108 2019-03-22 1
208 New Monetary Advisor? This Is 4 Tips To Starting Your Monetary Planning Follow new GenevieveRasch5719 2019-03-22 1
207 How To Select A Financial Advisor Or Financial Planner new CristineWhetsel39285 2019-03-22 2
206 Search Engine Marketing - Utilizing Blog Directories To Improve Your Web Presence 37052 new OliverM06490622951173 2019-03-22 1
205 The Place To Go For The Finest Funding Recommendation new ShanonUuf728437919037 2019-03-22 1
204 What Do Financial Advisors Do? new FredrickVxk8657 2019-03-22 2
203 Some Helpful Investment Tips And Recommendation For Retirees new UlyssesGreenhalgh26 2019-03-22 1
202 Financial Advisor Profession new Wally95O0613367371 2019-03-22 1
201 Monetary Advisor Expertise new RachelNewdegate6420 2019-03-22 1
200 Do I Need A Financial Advisor? new CorneliusHebert7415 2019-03-22 1
199 The Difference Between A Financial Advisor And A Registered Investment Advisor new GwendolynSaucedo933 2019-03-22 1
198 Some Useful Investment Ideas And Advice For Retirees new KelliWadham3637175 2019-03-22 2
197 Offshore Financial Adviser Calls For Regulation, And For Assist For Expats new OdetteWorrell8581 2019-03-22 1
196 Fee Biased Investment Advice Can Severely Harm Your Monetary Health new BrooksColunga84 2019-03-22 2
195 EDC Gold - EDC Diamond - Home-based Business Opinions - Scam Or-not 44423 new SaundraSheridan280 2019-03-22 2
194 How Necessary Is The Position Of A Financial Advisor new CorneliusHebert7415 2019-03-22 1
193 2016年CRACK版iGameGuardian 無料ダウンロード方法 DOPEBLOG new ArtMarlowe83449 2019-03-22 3
192 Addiction Therapy Centers For Substance Abuse 26382 new MargaritoGriffiths5 2019-03-22 2
191 Knowing The Important Points About An Affiliate Program 36851 new LilianaMcEncroe10186 2019-03-22 2
190 Vini Yoga 23881 new FaeI9594914749456 2019-03-22 1
189 Record Roof Tiles 49303 new KeriCornelius017 2019-03-22 1
188 Four Implausible Xmas Present Video Games new NellieMcComas704492 2019-03-22 1
187 Detox Or Detoxification - Whatever You Call It , You May Advantage 42927 new MarianoBrownrigg138 2019-03-22 1
186 HDMI And DVI, Similarities And Differences 41418 new JulieSissons3225603 2019-03-22 1
185 Detox Or Detoxification - Whatever You Get In Touch With It , You May Possibly Advantage 33053 new JeanettMazzeo813 2019-03-22 1
184 Gaming Hots And Nots new SandraCollings2449 2019-03-22 3
183 Physical Assessments Affect Your Warming And AC, Too 23535 new LeonoraHoff603456 2019-03-22 2
182 New Technology Fails Through Cancer Pain 23922 new MaricruzP4748684855 2019-03-22 2
181 Detox Or Detoxification - Whatever You Get In Touch With It , You Could Advantage 43819 new LizaCurr26075061931 2019-03-22 2
180 Promotional Advertising Niche Youve Waited Long Enough 30157 new VivienAngelo74045 2019-03-22 2
179 What's Your Purpose As A Parent To Simply Help Prevent Drug-abuse? 28902 new JeannetteHilliard 2019-03-22 1
178 Tax Refund Email Scam IRS Warning 14189 new JacintoLarue321405 2019-03-22 2
177 Are You Making Your Young Ones Adjust You? 33324 new LinoKeating965858 2019-03-22 2
176 John Reese's Prime Site Visitors Secrets 31347 new BraydenRigby09434 2019-03-22 1
175 Monetary Advisor Careers new LWPClinton55341 2019-03-22 2
174 Sixteen Exercise Ideas For Couples new KamDrum1027008801 2019-03-22 4
173 For Investment Recommendation UK, Consult An Impartial Financial Adviser new MFDCornell611767281 2019-03-22 2
172 Addiction Therapy Centers For Substance Abuse 21165 new BeatrizNeidig65 2019-03-22 1
171 Find Out About The Various Varieties Of Flowers 27751 new ElenaRuggieri3009615 2019-03-22 2
170 Avian Bird Flu Details 11867 new MonserrateT042231726 2019-03-22 1
169 Alcohol Rehab If It Is Necessary 23503 new FEXLou9174553209358 2019-03-22 1
168 The Distinction Between A Financial Advisor And A Registered Investment Advisor new MorrisDeloach81 2019-03-22 2
167 Detox Or Detoxification - Whatever You Contact It , You May Benefit 47822 new PattyFelts0334107128 2019-03-22 2
166 An Insight Into Michael Owen 12155 new QBOMonte869127719 2019-03-22 1
165 Addiction Remedy Centers For Substance Abuse 17539 new KarryDove64843982 2019-03-22 1
164 Emily's Miracle Of Life new OlenReiber62732391 2019-03-22 1
163 Las Vegas Wedding Invitation Wording - Help Is Here 37546 new ClaireVelasquez5533 2019-03-22 1
162 Financial Advisor Advertising new LonnySedillo1228751 2019-03-22 3
161 3 Self Improvement Strategies For Monetary Advisers new JodiBruni87366765 2019-03-22 2
160 The Advertising And Marketing Tips Of "Financial Advisers" new MyrnaGuidi59100 2019-03-22 2
159 HDMI And DVI, Similarities And Distinctions 22587 new Windy345857376858841 2019-03-22 2
158 Gardening Book 38921 new WXQZachary511631 2019-03-22 1
157 Installing Custom Sheepkin Seat Covers 39037 new ChuDunshea8960880181 2019-03-22 1
156 Finding Inexpensive Auto Parts 11299 new RuthieDesantis608 2019-03-22 1
155 Improving Your Web Site With SEO Organic Techniques 15638 new CasieDunne9598339867 2019-03-22 1
154 Bar Hopping In Vegas 33469 new JeffryXqw34216930142 2019-03-22 1
153 Typical Symptoms Of Prescription Drug Addiction 14340 new MyrtleHarwood40506 2019-03-22 1
152 Bar-hopping In Nevada 21491 new LidiaThatcher134034 2019-03-22 2
151 Addiction Treatment Centers For Substance Abuse 23196 new ErwinMaxfield8552 2019-03-22 1
150 The Distinction Between A Monetary Advisor And A Registered Funding Advisor new MapleG07168242847 2019-03-22 1
149 Inventory Market Investment Advice new JeromeTout67727 2019-03-22 2
148 Financial Advisor Enterprise Plan new CassiePleasant089466 2019-03-22 2
147 Retirement Investment Recommendation new AmbroseCws045850338 2019-03-22 1
146 Uninstall Starcraft 2 new JanisCourts583106 2019-03-22 1
145 Playboy Satellite Radio 32764 new CourtneyLesina69 2019-03-22 1
144 Addiction Therapy Centers For Substance Abuse 27275 new CharlieTinsley51 2019-03-22 2
143 Addiction Remedy Centers For Substance Abuse 27772 new RaquelFuller453709 2019-03-22 1
142 Detox Or Detoxification - Whatever You Call It , You Might Advantage 46279 new MyrnaFredrick50948 2019-03-22 1
141 Addiction Treatment Centers For Substance Abuse 40455 new JolieMcDonagh27 2019-03-22 1
140 Embarking On A Career As A Financial Advisor new SantiagoLenehan 2019-03-22 1
139 Mortgage Accelerator new MuhammadXxv965927 2019-03-22 1
138 Career Rankings, Wage, Reviews And Advice new Jetta06297686923339 2019-03-22 1
137 Embarking On A Profession As A Financial Advisor new JodiBruni87366765 2019-03-22 1
136 Monetary Advisors new SherylAlbiston063213 2019-03-22 1
135 On Changing Into A Trusted Financial Advisor new MeredithO361842913 2019-03-22 1
134 Monetary Advisor Business Plan new PalmaSturgeon5764 2019-03-22 1
133 Financial Advisers new AdelaidePierson6 2019-03-22 1
132 Mutual Fund Funding Recommendation new UlyssesGreenhalgh26 2019-03-22 1
131 Conflicting Funding Recommendation new CorneliusHebert7415 2019-03-22 1
130 Financial Advisor Advertising new BreannaPfaff02929360 2019-03-22  
129 How To Discover Free Funding Recommendation new GenevieveRasch5719 2019-03-22 1
128 The Best Funding Recommendation Of All Time new RevaMannix990439522 2019-03-22 1
127 Turn Into An Investment Advisor new FredrickVxk8657 2019-03-22 1
126 Funding Recommendation For Individuals Considering An MLP Mutual Fund new HalinaLively893 2019-03-22 1
125 Be Taught To Make A Killing With This Traditional Stock Market Investment Advice new RachelNewdegate6420 2019-03-22 1
124 Embarking On A Career As A Financial Advisor new BreannaPfaff02929360 2019-03-22 1
123 Investment Advice For Learners new RenatoThow3143320 2019-03-22 1
122 What Do Financial Advisors Do? new CassiePleasant089466 2019-03-22 1
121 An Honest And Credible Investment Recommendation For Novice Investors new LonnySedillo1228751 2019-03-22 1
120 New Freshmen Funding Recommendation new CorneliusHebert7415 2019-03-22 1
119 Addiction Remedy Centers For Substance Abuse 36352 new QuinnO597208085625 2019-03-22 1
118 Want Investment Advice? new MyrnaGuidi59100 2019-03-22 1
117 Free Mutual Fund Investment Advice Online new RachelNewdegate6420 2019-03-22 1
116 Financial Advisor Career new GenevieveRasch5719 2019-03-22 1
115 How To Purchase Your Inventory At Low Cost? Investment Recommendation new TamiCawthorne6432 2019-03-22 1
114 Choosing A Monetary Advisor new RockySpielvogel 2019-03-22 1
113 The Greatest Investment Recommendation Of All Time new GabrieleLandor7 2019-03-22 1
112 Monetary Advice From 1796 new HeribertoMolloy 2019-03-22 1
111 Monetary Advisor Marketing new KelliWadham3637175 2019-03-22 1
110 New Financial Advisor? Here's Four Tips To Starting Your Financial Planning Follow new PerryFlood9477677686 2019-03-22 1
109 Selecting A Monetary Advisor new CristineWhetsel39285 2019-03-22 1
108 Addiction Remedy Centers For Substance Abuse 13372 new CarlaBolton3008 2019-03-22 1
107 Pronto.com new Gladys69053308267242 2019-03-22 1
106 Kensaq.com new HeribertoMolloy 2019-03-22  
105 Inventory Investing Advice new GabrieleLandor7 2019-03-22 1
104 Financial Advisor new MFDCornell611767281 2019-03-22 1
103 From Visual Style To Web Development What Your Organization Needs! 18602 new ChasityLamilami 2019-03-22 1
102 Client Appreciation For Monetary Advisors new RenatoThow3143320 2019-03-22 1
101 The World's Worst Stock Investment Advice new PalmaSturgeon5764 2019-03-22 1
100 Addiction Treatment Centers For Substance Abuse 14675 new CooperFosbrook44192 2019-03-22 2
99 Farmland Funding Advice new DamionAndres11870 2019-03-22 1
98 Inventory Market Funding Recommendation new RockySpielvogel 2019-03-22 1
97 Actual Property Funding Recommendation new PerryFlood9477677686 2019-03-22 1
96 How To Discover Free Investment Recommendation new JeromeTout67727 2019-03-22 1
95 New Financial Advisor? Here's Four Suggestions To Starting Your Monetary Planning Follow new MarciaVickers146 2019-03-22 1
94 Selecting A Financial Advisor new KelliWadham3637175 2019-03-22 1
93 Choosing A Financial Advisor new JonathonLundstrom 2019-03-22 1
92 Detox Or Detoxification - Whatever You Contact It , You Might Advantage 33760 new JeanetteFortier95779 2019-03-22 1
91 Want A Thriving Business? Avoid Expedited Passport Renewal! new Larry962009400662 2019-03-22 1
90 8 Tips To Grow Your Visa Application Status Uscis new TameraHartley30718 2019-03-22 1
89 Addiction Therapy Centers For Substance Abuse 32393 new RuthSmartt765514 2019-03-22 1
88 Take A Structured Settlement Or One-Time Lump Sum Payment? 27914 new BrittneyBurks398 2019-03-22 1
87 Addiction Remedy Centers For Substance Abuse 41100 new MalloryVnk9449221 2019-03-22 1
86 Downloadsites, Tools, Audio, Software, Games, Multimedia, Graphics new Consuelo781965982000 2019-03-22  
85 Addiction Treatment Centers For Substance Abuse 24686 new ErickMullins768 2019-03-22 1
84 Paid Surveys And So On. Scam - Is Paidsurveysetc A Scam? 35243 new AlyceBadgett240932 2019-03-22 2
83 International Debt Collection Agency new Sibyl60K5322625 2019-03-22  
82 Prescription Anti-depressant Overdose Eliminating Canadians 45099 new InesKelleher7767979 2019-03-22 1
81 Elon Musk Thinks That Our Existence Is Someone Else's Video Recreation new CindiE33988798229 2019-03-22  
80 Dependancy And Recovery Articles new UnaWilkinson48210444 2019-03-22  
79 What Is Expedited Visa Processing Australia? new PatrickS61301968 2019-03-22 1
78 Believing These 4 Myths About Visa Application Fees India Keeps You From Growing new EmmanuelBul25785964 2019-03-22 1
77 Why Kids Love Passport Photos Online new DesireeKillian5593 2019-03-22 1
76 What Is Your Purpose As A Parent To Help Prevent Drug-abuse? 36665 new DonetteBednall82 2019-03-22 1
75 Eight Ways To Avoid Expedited Passport Time Renewal Burnout new MelindaVgc54481 2019-03-22 1
74 The Most Overlooked Fact About Passport Renewal Fee Revealed new CoralWilloughby4653 2019-03-22 1
73 Interesting Factoids I Bet You Never Knew About Passport Office Houston new StaciaBrumby1805792 2019-03-22 1
72 Too Busy? Try These Tips To Streamline Your Visa Application For China new MiguelFay5480897039 2019-03-22 1
71 Who Else Wants To Know The Mystery Behind Expedited Passport Agency Dc? new StaciaBrumby1805792 2019-03-22 1
70 7 Ways Expedited Passport Timeline Can Make You Invincible new StaciaBrumby1805792 2019-03-22 1
69 Alcohol Detoxification Even Though You Are Simply A Social Drinker 23559 new UnaMondalmi4404813 2019-03-22 1
68 Vini Yoga 22432 new BuddyGadson55076839 2019-03-22 1
67 Substance Abuse Treatment In-to Main-stream Of Healthcare Process 29495 new DeneenGalleghan36508 2019-03-22 1
66 HDMI And DVI, Similarities And Differences 24331 new MadgeY27233499769 2019-03-22 3
65 Narcotic Pain Relief: Addiction Threat And Medication 20914 new HugoKortig72068941151 2019-03-22 1
64 Dirk Goes Crazy And Suns Fail To Cover! 39700 new EugeniaGordon95220488 2019-03-22 1
63 Affiliate Cloaking... What It's And WHY You Ought To Be Using It If Your A Joint Venture Partner Marketer 25031 new GarrettDuell2348 2019-03-22 1
62 Alcoholism What Can I Know About It? 16307 new AlbertoMata469100048 2019-03-22 1
61 Dropped Hard Drive: Dont Panic 29102 new LeonoreRch119638341 2019-03-22 1
60 Dental Treatments 101: Everything Required To Know 49528 new Young570819672367637 2019-03-22 1
59 The Fight Against Passport Renewal Post Office new JaimieOdum800799 2019-03-22 1
58 Owned Games, Consoles, Phones & Tablets new LukasCollee507453 2019-03-22 1
57 Require A Vacation Idea? Luxor Hotel And Casino 28699 new MargueriteTejada5669 2019-03-22 1
56 New Technology Breaks Through Cancer Pain 18040 new HarriettKernot3216 2019-03-22 1
55 Instructional Worth Of Games And Sports Activities new JanessaWillason46785 2019-03-22 2
54 Australia Tour Package 31307 new QENIrma359340824 2019-03-22 1
53 Internet Cloaking... What It IS And WHY You Ought To Be Using It If Your A Joint Venture Partner Marketer 12429 new KassandraTopper52131 2019-03-22 1
52 Addiction Remedy Centers For Substance Abuse 32259 new CliffordThacker5 2019-03-22 1
51 Robben Island, A Treasure 22594 new SamuelG896824943789 2019-03-22 1
50 Overlooking Bad Complaint 24608 new PhoebeSchlemmer 2019-03-22 1
49 Visa Application Center Near Me - Dead Or Alive? new CandiceSteger5954935 2019-03-22 1
48 Detox Or Detoxification - Whatever You Contact It , You May Benefit 10884 new JMMElvia453225808 2019-03-22 1
47 Want More Money? Get Visa Application Status France new StaciaBrumby1805792 2019-03-22 1
46 Top Guide Of Expedited Passport Houston new BlondellRendon781 2019-03-22 1
45 What Everybody Dislikes About Expedited Visa To India And Why new JakeTulk52553187746 2019-03-22 1
44 Top Guide Of Visa Application Status Administrative Processing new MariA0566682650 2019-03-22 1
43 News And The Net 20111 new BelenArmour1355 2019-03-23 1
42 Substance Abuse Treatment In-to Mainstream Of Healthcare Process 29149 new MargaritaMacredie900 2019-03-23 1
41 Satellite TV Listings Simple To Locate 23022 new JulianneKuntz310403 2019-03-23 1
40 Boost Your Passport Photos Post Office With These Tips new EQZKristopher13 2019-03-23 1
39 Create A Expedited Passport Fee Usps Your Parents Would Be Proud Of new EQZKristopher13 2019-03-23 1
38 Dropped Hard Drive: Dont Panic 17143 new JadaAnsell119420378 2019-03-23 1
37 Addiction Treatment Centers For Substance Abuse 19122 new TrevorChick13923 2019-03-23 1
36 Big Names In Basketball 11416 new HaiLedet624046371907 2019-03-23 1
35 Las Vegas Wedding Invitation Wording - Help Is Here 12584 new KCYHarriet4634899 2019-03-23 1
34 If The Stocks Commence At Just Below A Dollar, How Can An Investor Hope To Become Wealthy In The Finish? 15364 new BudFarncomb6056 2019-03-23 1
33 Decorating Book Club Discover The Art Of Decorating 48027 new BennyL0370297235 2019-03-23 1
32 Edward Hardy 28618 new MilagroP53278111 2019-03-23 1
31 Produce Pretty Recycled Notepads From Trash! 32465 new JanelleKraegen779600 2019-03-23 1
30 Promotional Promotion Specialty Youve Waited Long Enough 45043 new KathiWhatmore364 2019-03-23 1
29 Addiction Treatment Centers For Substance Abuse 19678 new MJMJonelle63424471 2019-03-23 1
28 Avian Bird Flu Info 17159 new LeonShellshear13 2019-03-23 1
27 10 Infamous Presidents Or World Leaders new MeiFlockhart25999 2019-03-23  
26 Article Marketing Is All About Games 11916 new GiuseppeWalpole 2019-03-23 1
25 Alcohol Detox Even Though You Are Simply A Social Drinker 26671 new FabianMcBryde674 2019-03-23 1
24 Hyperlink Developing Strategies For 2006 23763 new AlexandriaBrookman3 2019-03-23 1
23 Partnership Quiz- Is The Honeymoon More Than? 32639 new MelanieJ5529771647 2019-03-23 1
22 Laser Hair Removal So How Exactly Does This Process Work? 26522 new ChuGalway42534794783 2019-03-23 1
21 Addiction Treatment Centers For Substance Abuse 37026 new DoyleWalsh628246476 2019-03-23 1
20 Search Engine Optimization, SEO London And Search Engine Optimization UK 37252 new DerickKzh0551790939 2019-03-23 1
19 What Are The Professionals And Cons Of The Manual Wheel Chair? 22688 new Gerald1303181793314 2019-03-23 1
18 Addiction Therapy Centers For Substance Abuse 31697 new HCDApril566444841 2019-03-23 1
17 Dirk Goes Crazy And Suns Fail To Protect! 48365 new HCUJeffery4826001923 2019-03-23 1
16 Promotional Marketing Specialty Youve Waited Long Enough 37068 new TrishaBraman08326403 2019-03-23 1
15 Practicing In The Forex Market Place 49032 new TeresitaPontiff61 2019-03-23 1
14 Addiction Remedy Centers For Substance Abuse 37334 new MRLLola65274309 2019-03-23 1
13 Deion Sanders 1989 Draft Day Picks 23275 new GTGEdith806451298374 2019-03-23 1
12 News And The World Wide Web 35465 new YVPMarcia7409647 2019-03-23 1
11 Fruit For Although: How Grape Juice Can Help Keep Us Mentally On Track 18131 new StephanieNettleton10 2019-03-23 1
10 Gambling Addiction: Do One Thing Before It Goes To Far 32025 new KelvinBruntnell4 2019-03-23 1
9 Alcohol Treatment - Keep Your Life 11821 new ErlindaMasten145 2019-03-23 1
8 Detox Or Detoxification - Whatever You Contact It , You May Possibly Benefit 18494 new Maxine652382110114 2019-03-23 1
7 Error Authenticating. Either Bad Username/Password Or Your Account Has Outstanding Payments Due 27713 new DannielleHyland5 2019-03-23 1
6 Guidelines Of Survival (RoS) new KarolinJ14177232973 2019-03-23  
5 Dropped Hard Drive: Dont Panic 45311 new JosefinaUia965395 2019-03-23 1
4 Scientist Discovers The Preferrred Amount Of Time Children Should Spend Playing Video Video Games new GuillermoPigot0 2019-03-23  
3 Addiction Treatment Centers For Substance Abuse 15759 new AshliSasser137616 2019-03-23 1
2 Dirk Goes Crazy And Suns Fail To Protect! 38794 new Rosemary33018973 2019-03-23 1
1 Alcohol Detoxification Even Though You Are Simply A Social Drinker 18565 new DesireeMcqueen6 2019-03-23 1